Regional Weather Roundup
Issued by NWS

Home | Current Version | Previous Version | Text Only | Print | Product List | Glossary On
Versions: 1 2 3 4 5 6 7 8 9 10 11 12 13 14 15 16 17 18 19 20 21 22 23 24 25 26 27 28 29 30 31 32 33 34 35 36 37 38 39 40 41 42 43 44 45 46 47 48 49 50
842
ASUS44 KLIX 160301
RWRLA
LOUISIANA WEATHER ROUNDUP
NATIONAL WEATHER SERVICE NEW ORLEANS LA
1000 PM CDT TUE APR 15 2014

NOTE: "FAIR" INDICATES FEW OR NO CLOUDS BELOW 12,000 FEET WITH NO
      SIGNIFICANT WEATHER AND/OR OBSTRUCTIONS TO VISIBILITY.
      SKY/WX - SKY CONDITION AND SIGNIFICANT WEATHER.
      TMP - AIR TEMPERATURE.    DP   - DEWPOINT TEMPERATURE.
      RH  - RELATIVE HUMIDITY.  PRES - PRESSURE.
      HX  - HEAT INDEX.         WCI  - WIND CHILL INDEX.

*  THESE STATIONS ARE NOT NWS OR FAA STATIONS AND ARE NOT UNDER
   NWS QUALITY CONTROL.

LAZ040-048-061>063-065-066-069-160400-
SOUTHEAST LOUISIANA

CITY           SKY/WX    TMP DP  RH WIND       PRES   REMARKS
N.O. AUDUBON     N/A     55  32  41 MISG        N/A
N.O. INTL ARPT PTCLDY    53  31  42 N15G25    30.19R
N.O. LAKEFRONT CLEAR     55  34  45 N22       30.20R
N.O. DOWNTOWN* FAIR      55  28  35 N12G17    30.19R
SLIDELL        CLEAR     49  34  56 N5        30.20R
BATON ROUGE    CLEAR     48  33  56 CALM      30.21R
BOOTHVILLE     PTCLDY    57  36  45 N14G22    30.15R
BELLE CHASSE   PTCLDY    53  31  42 N6        30.18R
BOGALUSA*        N/A     46  35  66 N5        30.22R
GALLIANO*      NOT AVBL
NEW ROADS*     NOT AVBL
GONZALES*      FAIR      49  32  51 N6        30.21R
HAMMOND*       NOT AVBL
HOUMA*         NOT AVBL
PORT FOURCHON* CLEAR     55  36  47 N15       30.17R

$$

LAZ041-044-053-054-160400-
SOUTHWEST LOUISIANA

CITY           SKY/WX    TMP DP  RH WIND       PRES   REMARKS
LAKE CHARLES   CLEAR     50  35  56 NE6       30.18R
LAFAYETTE      CLEAR     47  34  60 NE9       30.18F
PATTERSON      CLEAR     52  34  50 N12G17      N/A
SALT POINT       N/A     53  35  50 N5        30.17S
NEW IBERIA     CLEAR     51  32  48 NE14      30.19S
CHENAULT AIRPK CLEAR     48  36  61 N3        30.19R

$$

LAZ027-028-160400-
CENTRAL LOUISIANA

CITY           SKY/WX    TMP DP  RH WIND       PRES   REMARKS
FORT POLK      CLEAR     45  39  79 N3        30.19R
ALEXANDRIA INT CLEAR     48  35  60 E6        30.20R
ALEXANDRIA     CLEAR     42  39  89 CALM      30.22R

$$

LAZ001-002-160400-
NORTHWEST LOUISIANA

CITY           SKY/WX    TMP DP  RH WIND       PRES   REMARKS
SHREVEPORT     CLEAR     46  37  71 CALM      30.20R
BARKSDALE AFB  CLEAR     45  37  73 NE1       30.21R
DTN SHREVEPORT CLEAR     44  35  70 CALM      30.21R

$$

LAZ014-016-160400-
NORTHEAST LOUISIANA

CITY           SKY/WX    TMP DP  RH WIND       PRES   REMARKS
MONROE         CLEAR     45  36  70 E3        30.25R
TALLULAH       CLEAR     47  38  71 N5        30.25R

$$




USA.gov is the U.S. government's official web portal to all federal, state and local government web resources and services.